sat.trackr.live / text

‹ back to catalog

YUNHAI-1 04

NORAD 58073 · 2023-159A

PAYLOAD ACTIVE UNKNOWN

§ Identity

Operator
Country
PRC
Launch date
2023-10-15
Launch site
JSC
Launch vehicle
Mass (kg)
RCS (m²)

External: N2YO · Heavens-Above · Gunter

§ Orbital elements

Epoch: 2026-09-21T22:50:14.617248Z

Period
100.52 min
Inclination
98.4944°
Eccentricity
0.0000289
Mean motion
14.32590458 rev/d
Perigee alt
782.9 km
Apogee alt
783.3 km
Semi-major
7,161.2 km
B*
9.2840e-5
RAAN
288.8134°
Arg perigee
149.2290°
Mean anomaly
210.8911°
Rev number
15,365

§ Raw data

YUNHAI-1 041 58073U 23159A   26264.95155807  .00000209  00000+0  92840-4 0  99902 58073  98.4944 288.8134 0000289 149.2290 210.8911 14.32590458153656

JSON: /api/v1/satellites/58073 · /tle

For live sub-satellite position, see the globe view (requires WebGL).

§ Visibility from observer

Set your observer location to see the next 7 days of passes ≥ 10°. The values pass through the URL so the page stays shareable.

No JS? Fill the form by hand. The geolocation button needs JavaScript.